Temp
-16 -16 -16 -16 -16 -16 -16 -16 -17 -17 -17 -18 -18 -17 -15 -15 -14 -14 -14 -14 -13 -13 -13 -13 -13 -13 -12 -11 -12 -12 -10 -10 -10 -11 -11 -12 -11 -11 -10 -9 -10 -9 -9 -9 -9
-16 -17 -16 -16 -16 -16 -16 -16 -17 -17 -17 -17 -18 -17 -17 -15 -15 -14 -15 -14 -13 -13 -13 -13 -13 -13 -13 -13 -12 -12 -10 -10 -11 -12 -12 -12 -11 -11 -10 -10 -10 -9 -10 -9 -10
-17 -16 -17 -17 -16 -17 -17 -17 -17 -17 -17 -17 -17 -18 -17 -16 -15 -15 -15 -14 -14 -14 -13 -13 -13 -13 -13 -13 -12 -12 -11 -11 -12 -12 -12 -11 -11 -10 -10 -10 -10 -9 -10 -10 -10
-16 -16 -17 -17 -17 -17 -17 -17 -18 -18 -18 -18 -17 -17 -17 -17 -16 -16 -15 -15 -14 -14 -14 -14 -13 -13 -13 -13 -13 -12 -12 -12 -12 -12 -12 -11 -11 -11 -10 -10 -10 -10 -10 -10 -10
-17 -17 -17 -18 -19 -19 -19 -18 -18 -18 -18 -18 -18 -17 -18 -18 -17 -16 -16 -15 -15 -14 -14 -14 -13 -13 -13 -13 -13 -12 -12 -12 -12 -12 -11 -11 -11 -11 -10 -10 -10 -10 -9 -9 -9
-18 -19 -20 -21 -21 -20 -20 -20 -19 -19 -19 -18 -18 -18 -17 -17 -18 -17 -16 -16 -15 -15 -14 -14 -14 -14 -13 -13 -13 -12 -12 -12 -12 -11 -11 -11 -11 -11 -11 -11 -11 -10 -9 -9 -9
-19 -21 -23 -23 -24 -23 -21 -21 -20 -20 -19 -19 -19 -18 -17 -18 -18 -18 -17 -16 -16 -15 -15 -15 -14 -14 -14 -13 -13 -12 -12 -12 -12 -12 -12 -11 -11 -10 -11 -11 -10 -10 -9 -9 -9
-22 -24 -25 -25 -25 -25 -23 -22 -21 -21 -20 -20 -20 -19 -17 -18 -18 -18 -18 -17 -16 -16 -16 -15 -15 -14 -14 -13 -13 -13 -12 -12 -12 -13 -12 -11 -10 -10 -11 -11 -10 -9 -10 -9 -9
-24 -25 -25 -26 -27 -26 -25 -23 -22 -20 -21 -20 -20 -19 -18 -18 -17 -18 -18 -17 -17 -16 -16 -15 -15 -14 -14 -13 -13 -13 -12 -12 -13 -12 -12 -11 -10 -11 -11 -10 -10 -10 -10 -10 -10
-25 -25 -26 -27 -27 -27 -26 -24 -23 -20 -20 -20 -20 -20 -18 -17 -18 -19 -18 -17 -17 -17 -17 -16 -15 -15 -14 -14 -13 -13 -13 -13 -12 -12 -11 -11 -10 -11 -11 -11 -10 -10 -10 -10 -10
-25 -25 -27 -28 -28 -27 -27 -25 -23 -22 -20 -20 -20 -19 -19 -18 -18 -18 -18 -17 -17 -17 -17 -16 -16 -14 -14 -15 -14 -14 -13 -12 -12 -12 -12 -11 -11 -11 -12 -11 -11 -11 -11 -10 -10
-26 -27 -27 -27 -27 -27 -27 -26 -24 -22 -20 -20 -20 -19 -19 -19 -19 -18 -18 -18 -18 -17 -17 -16 -16 -16 -15 -16 -14 -14 -13 -13 -13 -13 -12 -11 -11 -12 -12 -11 -11 -11 -11 -11 -11
-27 -27 -27 -27 -27 -27 -27 -26 -24 -23 -21 -21 -20 -19 -20 -19 -18 -18 -19 -19 -18 -17 -17 -17 -16 -16 -16 -16 -15 -15 -14 -14 -14 -13 -12 -12 -11 -12 -12 -12 -12 -12 -11 -11 -11
-27 -27 -27 -27 -27 -27 -26 -25 -24 -23 -21 -21 -20 -20 -19 -19 -18 -18 -19 -19 -18 -17 -17 -17 -17 -16 -16 -16 -15 -15 -15 -15 -14 -14 -13 -12 -10 -12 -12 -12 -12 -12 -12 -12 -12
-26 -26 -27 -27 -27 -27 -26 -24 -23 -22 -21 -20 -20 -20 -19 -18 -18 -18 -19 -19 -18 -18 -17 -17 -17 -17 -16 -16 -16 -15 -15 -15 -15 -14 -13 -13 -11 -11 -13 -13 -13 -13 -13 -13 -13
-26 -26 -27 -27 -27 -26 -25 -23 -22 -21 -20 -21 -20 -19 -19 -18 -18 -18 -18 -18 -18 -18 -17 -17 -17 -17 -16 -16 -16 -16 -16 -15 -15 -14 -13 -14 -13 -11 -13 -13 -13 -13 -13 -13 -13
-26 -26 -26 -27 -26 -26 -24 -22 -22 -21 -21 -21 -20 -19 -19 -18 -18 -18 -18 -18 -18 -17 -17 -17 -17 -17 -16 -16 -16 -16 -16 -15 -15 -15 -14 -14 -13 -13 -14 -14 -14 -13 -13 -13 -13
-26 -25 -24 -25 -25 -25 -24 -23 -23 -21 -20 -20 -20 -19 -19 -18 -18 -18 -18 -18 -17 -17 -17 -18 -17 -17 -16 -16 -16 -16 -16 -16 -15 -15 -14 -14 -13 -14 -14 -14 -14 -14 -13 -13 -13
-23 -23 -22 -22 -22 -22 -23 -23 -22 -21 -21 -20 -20 -19 -19 -18 -18 -18 -18 -18 -18 -18 -17 -17 -17 -17 -17 -16 -16 -16 -16 -16 -15 -15 -14 -14 -14 -14 -15 -15 -14 -13 -13 -13 -13
-22 -23 -22 -22 -22 -22 -22 -21 -21 -21 -20 -20 -19 -19 -19 -18 -18 -18 -18 -18 -18 -17 -17 -17 -17 -17 -17 -17 -16 -16 -16 -16 -16 -15 -14 -14 -14 -14 -15 -14 -13 -13 -13 -13 -13
-22 -22 -22 -22 -22 -21 -21 -20 -20 -20 -20 -20 -19 -19 -19 -18 -18 -18 -18 -18 -18 -17 -17 -17 -17 -17 -17 -16 -16 -16 -16 -16 -15 -15 -15 -14 -14 -15 -14 -13 -13 -14 -14 -14 -14
-20 -20 -21 -21 -21 -21 -21 -20 -20 -20 -19 -19 -19 -19 -19 -18 -18 -18 -18 -18 -18 -17 -17 -17 -17 -17 -16 -16 -16 -16 -16 -16 -15 -15 -15 -15 -15 -15 -15 -15 -15 -14 -15 -14 -14
-20 -19 -19 -20 -20 -20 -20 -20 -20 -20 -19 -19 -19 -19 -19 -19 -19 -18 -18 -18 -17 -17 -17 -17 -17 -17 -16 -16 -16 -16 -16 -16 -15 -15 -15 -15 -15 -14 -15 -15 -15 -14 -14 -14 -14
-19 -19 -19 -19 -19 -19 -20 -20 -19 -19 -19 -18 -18 -18 -19 -18 -18 -18 -18 -17 -17 -17 -17 -17 -17 -17 -16 -16 -16 -16 -16 -16 -15 -15 -15 -16 -15 -14 -15 -14 -14 -14 -14 -14 -14
-19 -19 -19 -19 -19 -19 -19 -19 -19 -18 -19 -18 -18 -19 -18 -19 -18 -18 -18 -18 -17 -17 -17 -17 -17 -17 -16 -16 -16 -16 -16 -16 -16 -16 -15 -15 -15 -14 -14 -14 -14 -14 -14 -15 -15
-19 -19 -19 -19 -19 -19 -19 -19 -19 -18 -18 -19 -19 -19 -19 -19 -18 -18 -18 -18 -18 -18 -17 -17 -17 -17 -16 -16 -16 -16 -16 -16 -16 -15 -16 -15 -15 -15 -14 -15 -15 -15 -15 -15 -16
-19 -19 -19 -19 -19 -19 -19 -19 -19 -18 -18 -18 -18 -19 -19 -19 -19 -19 -18 -18 -18 -17 -17 -17 -17 -17 -16 -16 -16 -16 -16 -16 -15 -16 -16 -15 -15 -15 -15 -15 -15 -15 -15 -15 -16
Height
5686 5681 5677 5673 5671 5668 5667 5666 5667 5669 5669 5670 5673 5677 5682 5690 5697 5705 5715 5718 5724 5730 5735 5741 5746 5748 5752 5758 5764 5768 5773 5780 5789 5793 5801 5799 5799 5799 5801 5805 5810 5812 5814 5819 5819
5674 5669 5664 5659 5656 5655 5653 5652 5653 5655 5659 5659 5662 5666 5672 5678 5686 5698 5702 5709 5716 5722 5728 5734 5739 5743 5747 5752 5757 5762 5766 5777 5784 5788 5792 5791 5792 5792 5795 5799 5805 5807 5810 5812 5814
5659 5652 5646 5642 5638 5635 5636 5636 5637 5640 5646 5650 5652 5655 5661 5668 5676 5687 5692 5700 5706 5714 5718 5724 5731 5737 5742 5745 5750 5756 5762 5771 5777 5781 5782 5785 5787 5790 5791 5794 5801 5803 5804 5806 5807
5640 5632 5622 5617 5614 5612 5613 5617 5620 5625 5630 5637 5643 5646 5650 5658 5669 5674 5682 5691 5696 5704 5711 5716 5724 5731 5736 5741 5746 5751 5757 5763 5770 5772 5775 5780 5783 5783 5785 5791 5794 5796 5795 5798 5800
5612 5599 5584 5578 5581 5584 5587 5594 5600 5608 5614 5623 5631 5635 5642 5650 5660 5665 5671 5680 5688 5695 5703 5710 5717 5723 5729 5735 5738 5743 5749 5755 5761 5764 5766 5772 5778 5779 5781 5783 5787 5790 5788 5788 5793
5581 5564 5551 5545 5542 5550 5556 5568 5579 5589 5598 5609 5619 5625 5634 5644 5645 5655 5663 5670 5679 5687 5694 5702 5710 5715 5721 5727 5732 5736 5741 5745 5751 5757 5759 5765 5772 5774 5778 5776 5777 5783 5783 5783 5783
5554 5534 5524 5521 5518 5521 5526 5540 5556 5570 5584 5595 5605 5613 5626 5634 5638 5647 5655 5663 5669 5678 5687 5693 5699 5707 5714 5719 5725 5728 5734 5738 5745 5751 5752 5754 5762 5767 5769 5766 5767 5775 5777 5777 5779
5532 5517 5509 5505 5504 5505 5509 5515 5533 5552 5569 5582 5592 5603 5617 5622 5632 5641 5648 5656 5662 5669 5678 5684 5691 5699 5706 5711 5716 5721 5727 5731 5739 5740 5745 5745 5756 5759 5761 5761 5761 5764 5769 5771 5773
5519 5506 5499 5496 5495 5495 5498 5503 5511 5533 5554 5569 5584 5596 5609 5616 5628 5633 5641 5650 5655 5663 5670 5678 5685 5691 5698 5704 5710 5714 5718 5724 5728 5732 5736 5739 5744 5751 5751 5754 5756 5757 5762 5765 5766
5511 5498 5493 5492 5491 5490 5491 5494 5500 5518 5541 5561 5575 5588 5602 5614 5620 5626 5636 5645 5652 5657 5665 5671 5677 5683 5691 5697 5704 5708 5712 5716 5720 5724 5728 5733 5735 5743 5746 5747 5750 5752 5754 5756 5759
5508 5494 5491 5491 5491 5491 5492 5492 5499 5510 5532 5555 5570 5584 5596 5605 5613 5621 5632 5640 5647 5653 5659 5666 5672 5678 5686 5691 5695 5699 5703 5708 5713 5717 5721 5726 5728 5734 5738 5739 5739 5742 5744 5747 5749
5505 5495 5493 5492 5491 5490 5490 5489 5494 5507 5528 5550 5566 5578 5591 5601 5610 5618 5627 5637 5642 5649 5655 5662 5668 5675 5681 5685 5688 5693 5698 5704 5707 5710 5713 5717 5722 5725 5728 5731 5731 5733 5735 5739 5740
5503 5498 5495 5493 5492 5491 5489 5489 5494 5509 5529 5551 5567 5577 5589 5599 5608 5617 5625 5634 5640 5647 5653 5659 5666 5671 5676 5679 5683 5688 5692 5696 5700 5702 5706 5710 5714 5718 5719 5721 5724 5725 5725 5727 5730
5504 5499 5497 5494 5493 5489 5487 5487 5495 5514 5535 5554 5564 5575 5585 5595 5605 5614 5623 5630 5637 5643 5650 5656 5660 5665 5670 5675 5680 5683 5686 5690 5694 5697 5700 5703 5706 5712 5711 5714 5715 5716 5718 5720 5721
5504 5497 5494 5492 5492 5488 5486 5490 5503 5519 5539 5553 5562 5573 5584 5596 5605 5611 5620 5627 5634 5641 5648 5654 5658 5662 5666 5671 5675 5679 5683 5686 5689 5691 5695 5698 5699 5708 5706 5706 5707 5710 5710 5709 5711
5502 5495 5490 5491 5490 5488 5488 5499 5512 5528 5541 5554 5562 5573 5584 5594 5602 5610 5618 5626 5631 5636 5642 5648 5654 5659 5664 5667 5670 5676 5679 5681 5684 5687 5689 5693 5694 5695 5700 5701 5700 5700 5701 5702 5703
5503 5496 5492 5491 5490 5491 5497 5507 5519 5527 5542 5550 5564 5576 5586 5596 5602 5610 5617 5624 5630 5636 5641 5646 5651 5656 5660 5664 5668 5673 5675 5678 5680 5682 5686 5688 5689 5690 5690 5691 5691 5691 5690 5691 5692
5511 5507 5503 5498 5500 5503 5511 5523 5528 5538 5549 5556 5567 5579 5589 5595 5602 5610 5617 5623 5629 5635 5640 5645 5649 5652 5656 5660 5664 5669 5672 5675 5676 5679 5681 5683 5684 5684 5683 5681 5680 5680 5679 5678 5677
5524 5520 5519 5516 5515 5522 5530 5536 5541 5546 5552 5561 5570 5582 5587 5595 5603 5609 5616 5622 5628 5633 5638 5642 5646 5650 5655 5658 5663 5667 5669 5672 5673 5674 5675 5678 5679 5679 5676 5674 5672 5668 5666 5665 5663
5542 5540 5538 5535 5536 5538 5544 5545 5550 5557 5563 5570 5577 5582 5592 5598 5605 5611 5617 5622 5628 5632 5637 5642 5646 5649 5654 5657 5661 5663 5667 5669 5669 5669 5670 5671 5672 5669 5667 5665 5661 5657 5652 5649 5646
5563 5560 5555 5552 5552 5553 5555 5557 5562 5566 5569 5577 5583 5591 5596 5601 5606 5611 5617 5622 5626 5631 5636 5641 5646 5650 5653 5655 5658 5661 5662 5664 5666 5666 5664 5664 5665 5661 5657 5654 5651 5646 5641 5637 5633
5580 5578 5572 5568 5568 5564 5564 5567 5570 5575 5578 5583 5589 5593 5599 5603 5608 5613 5617 5622 5627 5632 5637 5641 5645 5647 5650 5653 5656 5658 5659 5660 5661 5661 5659 5655 5660 5654 5649 5646 5641 5636 5629 5623 5616
5589 5589 5586 5580 5579 5576 5576 5578 5580 5583 5587 5590 5593 5597 5600 5604 5609 5613 5618 5623 5627 5631 5636 5639 5643 5646 5649 5652 5653 5654 5655 5655 5655 5654 5652 5648 5651 5643 5643 5639 5633 5626 5619 5610 5602
5598 5596 5593 5591 5588 5587 5586 5587 5590 5591 5593 5595 5597 5600 5603 5607 5611 5615 5618 5623 5627 5630 5634 5638 5641 5644 5646 5648 5650 5650 5650 5649 5649 5649 5648 5643 5645 5639 5636 5633 5627 5619 5611 5602 5592
5603 5601 5600 5597 5597 5596 5596 5595 5596 5597 5598 5599 5601 5602 5606 5609 5613 5616 5619 5623 5626 5630 5633 5637 5639 5641 5642 5644 5644 5644 5643 5644 5645 5645 5644 5641 5638 5637 5630 5625 5619 5611 5606 5596 5584
5607 5606 5604 5603 5602 5601 5600 5600 5601 5602 5603 5603 5604 5605 5607 5610 5613 5616 5620 5623 5626 5630 5632 5634 5636 5637 5638 5639 5639 5640 5640 5640 5641 5642 5641 5637 5634 5631 5627 5620 5614 5608 5601 5592 5580
5609 5607 5607 5607 5605 5604 5604 5604 5604 5604 5605 5606 5606 5608 5609 5611 5613 5616 5619 5622 5625 5628 5630 5632 5633 5634 5635 5635 5635 5637 5637 5638 5639 5639 5636 5634 5632 5629 5624 5618 5612 5606 5597 5590 5580
Wind_Speed
42 42 41 42 38 39 35 42 42 39 37 38 42 42 50 58 59 57 53 53 51 50 49 45 41 40 43 45 46 44 46 41 33 31 25 28 31 33 35 34 30 29 29 27 29
49 48 48 48 47 45 45 41 46 44 41 37 38 47 40 49 59 57 56 56 54 50 50 47 44 42 43 44 46 46 46 38 33 30 29 34 38 38 37 33 28 28 29 30 29
54 57 58 57 55 53 46 45 48 49 45 41 40 41 49 43 50 55 56 55 55 52 51 51 50 46 46 47 47 46 45 37 34 31 36 38 38 38 38 34 26 27 31 33 32
62 65 67 65 64 61 52 47 51 50 49 44 41 43 43 47 43 48 57 55 55 54 53 50 52 50 48 48 47 46 43 40 36 38 38 37 38 39 40 33 26 27 31 33 31
75 76 77 76 71 66 59 54 53 51 51 48 43 42 42 45 40 40 48 55 54 54 53 51 51 51 51 50 50 49 46 43 41 41 41 38 36 38 38 35 31 28 34 36 32
73 70 67 64 63 60 67 63 58 54 52 48 45 43 40 35 42 41 41 49 55 53 52 52 49 50 51 52 53 51 50 49 46 43 42 39 34 35 36 39 38 31 34 37 35
71 61 54 45 40 40 50 63 63 59 52 48 45 44 41 40 42 39 40 41 47 53 51 50 51 51 49 50 51 53 52 50 47 43 44 44 38 35 38 42 43 36 34 36 37
63 53 40 32 28 29 33 43 66 64 55 49 47 44 40 41 39 37 38 39 41 46 49 51 51 50 49 50 49 51 50 50 44 46 46 48 38 38 40 43 44 41 37 37 35
59 45 29 21 19 19 22 26 47 69 59 52 46 45 40 39 34 36 38 37 37 38 39 46 48 50 51 51 50 50 50 48 45 46 46 47 42 38 43 44 44 43 38 36 36
57 37 21 10 9 10 12 21 35 66 65 54 46 42 38 34 36 38 36 37 35 35 34 33 42 46 49 51 50 48 46 47 46 47 47 46 45 39 40 43 43 43 42 39 37
54 30 6 8 5 6 7 16 26 51 64 55 49 43 39 37 39 36 35 35 32 34 33 34 35 40 43 41 44 46 48 49 46 45 46 44 45 40 37 42 44 44 45 43 41
48 23 10 6 4 5 5 5 23 47 55 55 49 47 41 36 33 32 37 33 34 31 32 33 31 30 31 33 40 42 44 42 40 44 46 44 43 41 39 40 44 44 44 45 44
40 31 17 14 10 9 9 4 25 50 53 47 43 42 34 34 33 33 28 32 30 29 26 27 27 29 30 28 30 30 37 37 38 41 41 41 42 39 37 39 40 42 44 47 46
29 22 12 10 18 12 8 11 39 57 52 42 43 39 37 34 33 33 32 32 29 30 29 28 26 26 26 32 34 32 32 32 33 34 38 38 42 31 34 36 36 38 42 42 41
22 24 12 9 17 13 5 34 55 68 42 39 42 44 39 33 30 34 31 30 32 27 28 28 26 26 27 28 27 27 26 24 26 30 33 28 38 29 26 30 31 30 34 38 40
22 23 6 9 14 1 24 63 65 46 40 49 48 45 41 35 33 34 30 32 28 33 31 26 25 24 24 27 26 23 23 22 22 22 28 20 30 33 20 25 29 34 35 37 39
25 21 11 8 6 17 43 66 45 26 46 38 48 40 37 32 31 32 31 30 28 27 27 24 23 23 23 23 22 20 21 22 21 19 17 17 23 27 25 27 31 36 39 41 45
27 26 36 34 35 35 34 46 31 35 36 42 43 37 33 31 30 29 28 26 25 23 19 17 21 23 23 23 22 21 21 18 16 15 17 20 22 26 29 32 35 39 42 45 48
43 45 43 51 49 42 35 31 21 34 26 39 38 32 33 30 28 27 25 27 24 22 22 21 22 20 20 19 19 17 16 16 16 18 20 22 24 27 30 32 37 41 43 45 48
44 34 39 37 37 34 36 32 26 24 29 31 33 35 28 26 26 26 26 24 23 21 20 22 21 20 19 17 16 16 15 15 16 20 21 23 25 26 27 30 34 39 43 47 49
33 29 34 43 39 34 29 28 23 27 31 28 27 23 24 22 24 25 23 23 22 23 21 21 20 18 16 17 16 14 14 14 17 21 24 21 21 23 24 28 31 34 38 42 45
34 28 29 27 31 32 29 24 22 24 26 26 21 21 18 21 21 23 22 24 22 22 20 18 17 18 18 14 13 11 14 17 20 21 20 24 15 22 25 22 27 32 37 41 47
29 27 14 17 24 30 32 25 22 20 19 18 17 20 20 22 24 22 21 22 21 20 17 16 16 16 14 13 12 14 17 18 19 16 16 24 17 22 11 19 26 33 36 39 44
17 20 15 8 3 21 22 23 20 18 15 14 16 17 21 20 22 19 20 21 20 18 17 16 14 14 14 14 14 14 16 16 13 13 13 20 10 15 16 23 26 30 33 37 43
13 13 14 15 12 11 13 17 14 12 10 11 9 15 17 19 21 17 18 20 20 18 15 13 14 14 14 15 12 13 15 13 12 13 9 14 14 12 20 23 26 30 32 35 42
12 11 7 9 12 6 9 8 10 12 10 6 8 9 12 20 19 17 15 15 15 15 14 14 15 15 14 12 12 13 12 12 9 9 7 7 8 14 20 21 25 28 29 34 36
8 4 5 4 6 8 9 10 8 4 4 4 4 9 8 11 17 16 16 16 15 14 15 14 13 12 14 14 13 11 10 9 7 5 5 8 11 13 19 24 24 27 28 30 33
Wind_Direction
307 303 301 300 295 295 286 266 257 253 251 246 235 233 232 230 229 226 225 226 224 225 225 224 224 222 222 224 224 220 224 223 221 219 211 225 230 239 243 244 240 245 248 245 248
305 301 297 293 289 287 284 269 255 250 248 247 249 229 232 229 228 225 226 225 224 224 226 224 223 221 218 217 219 221 226 224 225 223 217 224 228 235 240 246 249 246 252 254 249
305 299 293 288 282 280 274 268 254 246 243 241 241 244 227 228 228 224 225 224 224 223 224 224 222 221 218 218 220 224 228 228 226 227 224 222 235 238 244 246 247 253 254 250 251
302 295 290 282 276 273 265 255 250 242 239 236 235 237 236 221 230 225 224 223 225 223 223 224 223 222 222 221 226 228 231 231 230 232 233 228 229 240 246 250 248 252 260 260 256
306 298 288 278 268 262 255 247 243 238 235 232 231 231 235 222 226 226 224 223 224 224 223 224 224 224 223 225 228 228 230 232 233 236 238 238 235 239 247 252 246 245 255 258 254
313 304 293 285 275 260 248 241 236 232 230 228 227 229 226 227 222 224 222 222 222 223 224 224 225 226 225 227 228 231 231 231 233 237 242 244 242 242 244 251 251 241 251 257 259
322 311 305 296 279 265 250 235 228 228 223 224 223 225 221 218 220 218 219 220 222 222 223 224 226 225 226 229 229 234 234 235 235 238 242 244 238 239 235 243 246 243 244 254 259
328 318 311 298 284 271 253 238 221 220 215 216 218 221 215 215 214 214 218 216 217 221 222 225 226 227 227 228 229 233 235 237 239 241 240 244 239 239 238 240 247 246 241 249 258
334 327 312 301 292 275 254 234 220 212 209 208 213 215 212 213 208 210 213 213 213 215 218 223 226 227 228 228 230 231 234 236 237 240 240 242 242 235 237 238 244 251 248 246 250
341 331 320 327 345 318 252 223 213 207 204 204 203 210 206 208 204 207 207 209 213 212 213 215 220 224 226 229 231 235 237 238 238 241 242 243 244 241 239 243 246 251 254 253 249
347 335 40 69 3 321 333 226 209 195 201 201 200 198 195 202 201 208 201 202 209 212 212 215 217 221 224 229 232 234 236 237 240 242 244 244 245 246 241 241 245 249 249 250 251
347 6 27 1 304 290 330 253 199 183 184 196 196 200 196 198 201 205 199 202 204 206 209 210 216 212 203 235 235 237 240 242 245 244 244 245 245 249 248 244 247 251 251 251 250
348 359 357 355 331 308 314 293 181 169 167 183 191 197 190 199 200 196 211 196 200 203 212 215 215 213 210 215 225 233 239 240 241 246 248 247 247 249 251 251 252 255 254 253 251
343 335 340 344 4 333 297 171 162 155 148 172 175 182 191 188 193 187 199 197 197 194 197 210 215 215 217 221 232 240 240 241 243 244 248 250 244 248 252 255 255 253 256 258 259
349 345 290 303 335 324 290 149 152 149 161 157 173 180 190 193 192 187 201 207 195 192 202 209 215 217 224 228 231 235 239 240 240 243 247 252 252 236 251 257 259 258 256 255 258
352 350 334 281 319 204 142 150 143 145 150 180 188 187 188 186 190 190 195 201 200 198 201 208 215 222 223 226 228 229 231 234 239 242 247 244 256 254 256 253 253 255 258 258 259
17 19 49 59 101 135 147 157 140 104 150 160 179 181 183 185 188 189 192 196 200 200 203 206 215 218 221 221 222 219 222 226 229 232 248 242 254 265 275 268 263 263 266 263 260
38 62 95 107 105 106 130 151 135 133 153 166 172 177 179 184 190 188 189 189 194 199 197 200 206 210 212 210 209 207 214 221 229 236 243 250 257 268 276 284 282 278 274 272 271
93 110 101 95 89 95 121 151 156 137 148 163 170 172 176 181 185 183 184 189 190 195 200 200 203 202 203 199 197 201 212 228 245 251 254 260 270 279 285 289 279 276 278 277 275
97 99 62 67 70 101 126 125 155 159 153 162 174 170 174 178 179 179 183 187 190 188 188 191 191 189 193 198 203 211 222 238 260 273 276 278 283 293 297 287 284 280 277 276 274
80 66 60 72 81 110 140 130 125 157 165 165 159 171 173 181 179 178 189 190 188 190 188 186 189 195 199 203 214 225 243 259 271 275 284 290 281 306 289 284 285 288 284 281 278
53 54 59 64 73 95 119 132 134 151 148 161 158 160 176 176 179 183 192 193 190 186 188 189 194 204 214 220 227 243 260 269 271 277 292 286 313 287 287 302 299 301 304 299 294
55 53 51 50 66 74 94 124 132 127 142 151 163 175 177 176 182 186 191 193 194 195 191 200 204 211 219 227 241 256 263 266 273 288 297 295 304 286 302 327 323 318 312 308 304
48 41 103 104 59 78 80 78 98 122 134 156 175 181 180 188 180 188 192 194 198 203 202 210 210 216 226 238 248 258 263 276 289 295 296 286 283 283 312 317 321 321 323 321 316
33 40 56 108 109 109 86 86 94 106 114 116 149 170 183 185 180 184 189 195 202 206 209 213 221 232 243 252 258 261 272 275 283 282 300 296 288 303 329 322 331 331 334 334 332
42 45 88 81 92 104 98 82 72 88 97 114 139 163 180 182 189 189 188 190 197 200 206 218 236 244 252 255 256 256 261 262 274 282 322 9 343 348 344 333 334 339 341 342 341
266 56 85 108 88 95 83 83 90 113 87 83 158 190 179 193 199 197 195 200 205 211 219 227 236 249 253 255 252 254 236 239 265 294 26 26 7 349 348 347 342 346 346 348 346